<?xml version="1.0" encoding="UTF-8" standalone="no" ?>
<gpx xmlns="http://www.topografix.com/GPX/1/1" xmlns:xsi="http://www.w3.org/2001/XMLSchema-instance" xsi:schemaLocation="http://www.topografix.com/GPX/1/1 http://www.topografix.com/GPX/1/1/gpx.xsd" version="1.1" creator="VisuGPX - https://www.visugpx.com">
  <metadata>
    <name>rando rocamadour 10.86 km</name>
    <desc><![CDATA[superbe rando avec de super denivelés]]></desc>
  </metadata>
  <trk>
    <name><![CDATA[rando rocamadour 11 km]]></name>
    <trkseg>
      <trkpt lat="44.79985" lon="1.6161">
        <ele>262</ele>
        <time>2016-03-07T10:47:01Z</time>
      </trkpt>
      <trkpt lat="44.79954" lon="1.61617">
        <ele>261</ele>
        <time>2016-03-07T10:47:06Z</time>
      </trkpt>
      <trkpt lat="44.79917" lon="1.61605">
        <ele>260</ele>
        <time>2016-03-07T10:47:11Z</time>
      </trkpt>
      <trkpt lat="44.79904" lon="1.61612">
        <ele>256</ele>
        <time>2016-03-07T10:47:16Z</time>
      </trkpt>
      <trkpt lat="44.79881" lon="1.6162">
        <ele>247</ele>
        <time>2016-03-07T10:47:21Z</time>
      </trkpt>
      <trkpt lat="44.79866" lon="1.61623">
        <ele>241</ele>
        <time>2016-03-07T10:47:26Z</time>
      </trkpt>
      <trkpt lat="44.79845" lon="1.61622">
        <ele>234</ele>
        <time>2016-03-07T10:47:31Z</time>
      </trkpt>
      <trkpt lat="44.79839" lon="1.61606">
        <ele>237</ele>
        <time>2016-03-07T10:47:36Z</time>
      </trkpt>
      <trkpt lat="44.79834" lon="1.61582">
        <ele>244</ele>
        <time>2016-03-07T10:47:41Z</time>
      </trkpt>
      <trkpt lat="44.79823" lon="1.61571">
        <ele>238</ele>
        <time>2016-03-07T10:47:46Z</time>
      </trkpt>
      <trkpt lat="44.79815" lon="1.61549">
        <ele>235</ele>
        <time>2016-03-07T10:47:51Z</time>
      </trkpt>
      <trkpt lat="44.79813" lon="1.61537">
        <ele>236</ele>
        <time>2016-03-07T10:47:56Z</time>
      </trkpt>
      <trkpt lat="44.79813" lon="1.61516">
        <ele>239</ele>
        <time>2016-03-07T10:48:01Z</time>
      </trkpt>
      <trkpt lat="44.79808" lon="1.615">
        <ele>239</ele>
        <time>2016-03-07T10:48:06Z</time>
      </trkpt>
      <trkpt lat="44.79797" lon="1.61489">
        <ele>234</ele>
        <time>2016-03-07T10:48:11Z</time>
      </trkpt>
      <trkpt lat="44.79789" lon="1.61476">
        <ele>231</ele>
        <time>2016-03-07T10:48:16Z</time>
      </trkpt>
      <trkpt lat="44.7978" lon="1.61462">
        <ele>228</ele>
        <time>2016-03-07T10:48:21Z</time>
      </trkpt>
      <trkpt lat="44.79771" lon="1.61444">
        <ele>225</ele>
        <time>2016-03-07T10:48:26Z</time>
      </trkpt>
      <trkpt lat="44.79758" lon="1.61414">
        <ele>222</ele>
        <time>2016-03-07T10:48:31Z</time>
      </trkpt>
      <trkpt lat="44.7975" lon="1.61417">
        <ele>219</ele>
        <time>2016-03-07T10:48:36Z</time>
      </trkpt>
      <trkpt lat="44.79749" lon="1.61406">
        <ele>217</ele>
        <time>2016-03-07T10:48:41Z</time>
      </trkpt>
      <trkpt lat="44.7975" lon="1.61406">
        <ele>219</ele>
        <time>2016-03-07T10:48:46Z</time>
      </trkpt>
      <trkpt lat="44.79753" lon="1.61385">
        <ele>216</ele>
        <time>2016-03-07T10:48:51Z</time>
      </trkpt>
      <trkpt lat="44.79756" lon="1.61369">
        <ele>215</ele>
        <time>2016-03-07T10:48:56Z</time>
      </trkpt>
      <trkpt lat="44.7976" lon="1.61359">
        <ele>215</ele>
        <time>2016-03-07T10:49:01Z</time>
      </trkpt>
      <trkpt lat="44.79765" lon="1.61351">
        <ele>216</ele>
        <time>2016-03-07T10:49:06Z</time>
      </trkpt>
      <trkpt lat="44.7977" lon="1.61337">
        <ele>216</ele>
        <time>2016-03-07T10:49:11Z</time>
      </trkpt>
      <trkpt lat="44.79774" lon="1.61328">
        <ele>216</ele>
        <time>2016-03-07T10:49:16Z</time>
      </trkpt>
      <trkpt lat="44.79782" lon="1.61313">
        <ele>217</ele>
        <time>2016-03-07T10:49:21Z</time>
      </trkpt>
      <trkpt lat="44.7979" lon="1.61292">
        <ele>217</ele>
        <time>2016-03-07T10:49:26Z</time>
      </trkpt>
      <trkpt lat="44.79798" lon="1.61269">
        <ele>217</ele>
        <time>2016-03-07T10:49:31Z</time>
      </trkpt>
      <trkpt lat="44.798" lon="1.61256">
        <ele>216</ele>
        <time>2016-03-07T10:49:36Z</time>
      </trkpt>
      <trkpt lat="44.79802" lon="1.61239">
        <ele>214</ele>
        <time>2016-03-07T10:49:41Z</time>
      </trkpt>
      <trkpt lat="44.79802" lon="1.61227">
        <ele>213</ele>
        <time>2016-03-07T10:49:46Z</time>
      </trkpt>
      <trkpt lat="44.79804" lon="1.61215">
        <ele>212</ele>
        <time>2016-03-07T10:49:51Z</time>
      </trkpt>
      <trkpt lat="44.79804" lon="1.612">
        <ele>209</ele>
        <time>2016-03-07T10:49:56Z</time>
      </trkpt>
      <trkpt lat="44.79809" lon="1.61188">
        <ele>210</ele>
        <time>2016-03-07T10:50:01Z</time>
      </trkpt>
      <trkpt lat="44.79816" lon="1.6117">
        <ele>211</ele>
        <time>2016-03-07T10:50:06Z</time>
      </trkpt>
      <trkpt lat="44.79822" lon="1.61158">
        <ele>212</ele>
        <time>2016-03-07T10:50:11Z</time>
      </trkpt>
      <trkpt lat="44.79833" lon="1.6114">
        <ele>214</ele>
        <time>2016-03-07T10:50:16Z</time>
      </trkpt>
      <trkpt lat="44.79846" lon="1.61129">
        <ele>214</ele>
        <time>2016-03-07T10:50:21Z</time>
      </trkpt>
      <trkpt lat="44.79865" lon="1.61115">
        <ele>214</ele>
        <time>2016-03-07T10:50:26Z</time>
      </trkpt>
      <trkpt lat="44.79877" lon="1.6111">
        <ele>215</ele>
        <time>2016-03-07T10:50:31Z</time>
      </trkpt>
      <trkpt lat="44.79886" lon="1.6111">
        <ele>217</ele>
        <time>2016-03-07T10:50:36Z</time>
      </trkpt>
      <trkpt lat="44.79909" lon="1.61118">
        <ele>222</ele>
        <time>2016-03-07T10:50:41Z</time>
      </trkpt>
      <trkpt lat="44.79916" lon="1.61114">
        <ele>223</ele>
        <time>2016-03-07T10:50:46Z</time>
      </trkpt>
      <trkpt lat="44.79926" lon="1.61102">
        <ele>223</ele>
        <time>2016-03-07T10:50:51Z</time>
      </trkpt>
      <trkpt lat="44.79931" lon="1.6109">
        <ele>222</ele>
        <time>2016-03-07T10:50:56Z</time>
      </trkpt>
      <trkpt lat="44.79928" lon="1.61081">
        <ele>220</ele>
        <time>2016-03-07T10:51:01Z</time>
      </trkpt>
      <trkpt lat="44.79925" lon="1.61069">
        <ele>219</ele>
        <time>2016-03-07T10:51:06Z</time>
      </trkpt>
      <trkpt lat="44.79925" lon="1.61053">
        <ele>218</ele>
        <time>2016-03-07T10:51:11Z</time>
      </trkpt>
      <trkpt lat="44.79927" lon="1.61044">
        <ele>217</ele>
        <time>2016-03-07T10:51:16Z</time>
      </trkpt>
      <trkpt lat="44.79926" lon="1.61034">
        <ele>216</ele>
        <time>2016-03-07T10:51:21Z</time>
      </trkpt>
      <trkpt lat="44.79927" lon="1.61022">
        <ele>216</ele>
        <time>2016-03-07T10:51:26Z</time>
      </trkpt>
      <trkpt lat="44.79924" lon="1.61007">
        <ele>214</ele>
        <time>2016-03-07T10:51:31Z</time>
      </trkpt>
      <trkpt lat="44.79924" lon="1.60994">
        <ele>214</ele>
        <time>2016-03-07T10:51:36Z</time>
      </trkpt>
      <trkpt lat="44.79926" lon="1.60977">
        <ele>214</ele>
        <time>2016-03-07T10:51:41Z</time>
      </trkpt>
      <trkpt lat="44.7993" lon="1.60955">
        <ele>216</ele>
        <time>2016-03-07T10:51:46Z</time>
      </trkpt>
      <trkpt lat="44.79935" lon="1.60933">
        <ele>217</ele>
        <time>2016-03-07T10:51:51Z</time>
      </trkpt>
      <trkpt lat="44.79943" lon="1.60915">
        <ele>218</ele>
        <time>2016-03-07T10:51:56Z</time>
      </trkpt>
      <trkpt lat="44.79941" lon="1.60905">
        <ele>219</ele>
        <time>2016-03-07T10:52:01Z</time>
      </trkpt>
      <trkpt lat="44.79937" lon="1.60891">
        <ele>220</ele>
        <time>2016-03-07T10:52:06Z</time>
      </trkpt>
      <trkpt lat="44.79934" lon="1.60882">
        <ele>220</ele>
        <time>2016-03-07T10:52:11Z</time>
      </trkpt>
      <trkpt lat="44.79932" lon="1.60868">
        <ele>221</ele>
        <time>2016-03-07T10:52:16Z</time>
      </trkpt>
      <trkpt lat="44.79926" lon="1.60846">
        <ele>223</ele>
        <time>2016-03-07T10:52:21Z</time>
      </trkpt>
      <trkpt lat="44.79922" lon="1.60814">
        <ele>226</ele>
        <time>2016-03-07T10:52:26Z</time>
      </trkpt>
      <trkpt lat="44.79919" lon="1.60788">
        <ele>229</ele>
        <time>2016-03-07T10:52:31Z</time>
      </trkpt>
      <trkpt lat="44.79919" lon="1.60761">
        <ele>233</ele>
        <time>2016-03-07T10:52:36Z</time>
      </trkpt>
      <trkpt lat="44.7992" lon="1.60751">
        <ele>234</ele>
        <time>2016-03-07T10:52:41Z</time>
      </trkpt>
      <trkpt lat="44.79921" lon="1.60721">
        <ele>236</ele>
        <time>2016-03-07T10:52:46Z</time>
      </trkpt>
      <trkpt lat="44.79925" lon="1.607">
        <ele>238</ele>
        <time>2016-03-07T10:52:51Z</time>
      </trkpt>
      <trkpt lat="44.79927" lon="1.60677">
        <ele>240</ele>
        <time>2016-03-07T10:52:56Z</time>
      </trkpt>
      <trkpt lat="44.79932" lon="1.60666">
        <ele>241</ele>
        <time>2016-03-07T10:53:01Z</time>
      </trkpt>
      <trkpt lat="44.79938" lon="1.60646">
        <ele>242</ele>
        <time>2016-03-07T10:53:06Z</time>
      </trkpt>
      <trkpt lat="44.79946" lon="1.60626">
        <ele>242</ele>
        <time>2016-03-07T10:53:11Z</time>
      </trkpt>
      <trkpt lat="44.79954" lon="1.60611">
        <ele>243</ele>
        <time>2016-03-07T10:53:16Z</time>
      </trkpt>
      <trkpt lat="44.79959" lon="1.60601">
        <ele>244</ele>
        <time>2016-03-07T10:53:21Z</time>
      </trkpt>
      <trkpt lat="44.79968" lon="1.60585">
        <ele>245</ele>
        <time>2016-03-07T10:53:26Z</time>
      </trkpt>
      <trkpt lat="44.79975" lon="1.60571">
        <ele>246</ele>
        <time>2016-03-07T10:53:31Z</time>
      </trkpt>
      <trkpt lat="44.79978" lon="1.60551">
        <ele>247</ele>
        <time>2016-03-07T10:53:36Z</time>
      </trkpt>
      <trkpt lat="44.7998" lon="1.60534">
        <ele>248</ele>
        <time>2016-03-07T10:53:41Z</time>
      </trkpt>
      <trkpt lat="44.79986" lon="1.60513">
        <ele>250</ele>
        <time>2016-03-07T10:53:46Z</time>
      </trkpt>
      <trkpt lat="44.79993" lon="1.60497">
        <ele>251</ele>
        <time>2016-03-07T10:53:51Z</time>
      </trkpt>
      <trkpt lat="44.8" lon="1.60473">
        <ele>251</ele>
        <time>2016-03-07T10:53:56Z</time>
      </trkpt>
      <trkpt lat="44.80007" lon="1.60447">
        <ele>253</ele>
        <time>2016-03-07T10:54:01Z</time>
      </trkpt>
      <trkpt lat="44.80012" lon="1.60433">
        <ele>254</ele>
        <time>2016-03-07T10:54:06Z</time>
      </trkpt>
      <trkpt lat="44.8002" lon="1.60414">
        <ele>255</ele>
        <time>2016-03-07T10:54:11Z</time>
      </trkpt>
      <trkpt lat="44.80027" lon="1.60381">
        <ele>256</ele>
        <time>2016-03-07T10:54:16Z</time>
      </trkpt>
      <trkpt lat="44.80035" lon="1.60362">
        <ele>257</ele>
        <time>2016-03-07T10:54:21Z</time>
      </trkpt>
      <trkpt lat="44.80054" lon="1.60301">
        <ele>258</ele>
        <time>2016-03-07T10:54:26Z</time>
      </trkpt>
      <trkpt lat="44.80059" lon="1.60274">
        <ele>258</ele>
        <time>2016-03-07T10:54:31Z</time>
      </trkpt>
      <trkpt lat="44.80069" lon="1.60212">
        <ele>258</ele>
        <time>2016-03-07T10:54:36Z</time>
      </trkpt>
      <trkpt lat="44.80075" lon="1.60184">
        <ele>258</ele>
        <time>2016-03-07T10:54:41Z</time>
      </trkpt>
      <trkpt lat="44.80078" lon="1.60172">
        <ele>258</ele>
        <time>2016-03-07T10:54:46Z</time>
      </trkpt>
      <trkpt lat="44.80083" lon="1.60161">
        <ele>258</ele>
        <time>2016-03-07T10:54:51Z</time>
      </trkpt>
      <trkpt lat="44.80091" lon="1.6015">
        <ele>258</ele>
        <time>2016-03-07T10:54:56Z</time>
      </trkpt>
      <trkpt lat="44.80103" lon="1.60128">
        <ele>257</ele>
        <time>2016-03-07T10:55:01Z</time>
      </trkpt>
      <trkpt lat="44.80157" lon="1.60038">
        <ele>255</ele>
        <time>2016-03-07T10:55:06Z</time>
      </trkpt>
      <trkpt lat="44.80174" lon="1.60008">
        <ele>254</ele>
        <time>2016-03-07T10:55:11Z</time>
      </trkpt>
      <trkpt lat="44.80188" lon="1.59985">
        <ele>255</ele>
        <time>2016-03-07T10:55:16Z</time>
      </trkpt>
      <trkpt lat="44.802" lon="1.59967">
        <ele>255</ele>
        <time>2016-03-07T10:55:21Z</time>
      </trkpt>
      <trkpt lat="44.80208" lon="1.59952">
        <ele>255</ele>
        <time>2016-03-07T10:55:26Z</time>
      </trkpt>
      <trkpt lat="44.80245" lon="1.59887">
        <ele>256</ele>
        <time>2016-03-07T10:55:31Z</time>
      </trkpt>
      <trkpt lat="44.80253" lon="1.59867">
        <ele>257</ele>
        <time>2016-03-07T10:55:36Z</time>
      </trkpt>
      <trkpt lat="44.80268" lon="1.59816">
        <ele>258</ele>
        <time>2016-03-07T10:55:41Z</time>
      </trkpt>
      <trkpt lat="44.80323" lon="1.59691">
        <ele>263</ele>
        <time>2016-03-07T10:55:46Z</time>
      </trkpt>
      <trkpt lat="44.80339" lon="1.59657">
        <ele>264</ele>
        <time>2016-03-07T10:55:51Z</time>
      </trkpt>
      <trkpt lat="44.80354" lon="1.5963">
        <ele>265</ele>
        <time>2016-03-07T10:55:56Z</time>
      </trkpt>
      <trkpt lat="44.80385" lon="1.59586">
        <ele>266</ele>
        <time>2016-03-07T10:56:01Z</time>
      </trkpt>
      <trkpt lat="44.80401" lon="1.5957">
        <ele>266</ele>
        <time>2016-03-07T10:56:06Z</time>
      </trkpt>
      <trkpt lat="44.80433" lon="1.59538">
        <ele>265</ele>
        <time>2016-03-07T10:56:11Z</time>
      </trkpt>
      <trkpt lat="44.80448" lon="1.5952">
        <ele>264</ele>
        <time>2016-03-07T10:56:16Z</time>
      </trkpt>
      <trkpt lat="44.80464" lon="1.59508">
        <ele>264</ele>
        <time>2016-03-07T10:56:21Z</time>
      </trkpt>
      <trkpt lat="44.80488" lon="1.59487">
        <ele>262</ele>
        <time>2016-03-07T10:56:26Z</time>
      </trkpt>
      <trkpt lat="44.80505" lon="1.59469">
        <ele>261</ele>
        <time>2016-03-07T10:56:31Z</time>
      </trkpt>
      <trkpt lat="44.80518" lon="1.5945">
        <ele>259</ele>
        <time>2016-03-07T10:56:36Z</time>
      </trkpt>
      <trkpt lat="44.8053" lon="1.59431">
        <ele>258</ele>
        <time>2016-03-07T10:56:41Z</time>
      </trkpt>
      <trkpt lat="44.8054" lon="1.59409">
        <ele>256</ele>
        <time>2016-03-07T10:56:46Z</time>
      </trkpt>
      <trkpt lat="44.8055" lon="1.59392">
        <ele>255</ele>
        <time>2016-03-07T10:56:51Z</time>
      </trkpt>
      <trkpt lat="44.80566" lon="1.59372">
        <ele>254</ele>
        <time>2016-03-07T10:56:56Z</time>
      </trkpt>
      <trkpt lat="44.80576" lon="1.59333">
        <ele>252</ele>
        <time>2016-03-07T10:57:01Z</time>
      </trkpt>
      <trkpt lat="44.80583" lon="1.59286">
        <ele>248</ele>
        <time>2016-03-07T10:57:06Z</time>
      </trkpt>
      <trkpt lat="44.80589" lon="1.59257">
        <ele>245</ele>
        <time>2016-03-07T10:57:11Z</time>
      </trkpt>
      <trkpt lat="44.80593" lon="1.59224">
        <ele>243</ele>
        <time>2016-03-07T10:57:16Z</time>
      </trkpt>
      <trkpt lat="44.80605" lon="1.5916">
        <ele>237</ele>
        <time>2016-03-07T10:57:21Z</time>
      </trkpt>
      <trkpt lat="44.80607" lon="1.59123">
        <ele>233</ele>
        <time>2016-03-07T10:57:26Z</time>
      </trkpt>
      <trkpt lat="44.80605" lon="1.59108">
        <ele>232</ele>
        <time>2016-03-07T10:57:31Z</time>
      </trkpt>
      <trkpt lat="44.80614" lon="1.59093">
        <ele>229</ele>
        <time>2016-03-07T10:57:36Z</time>
      </trkpt>
      <trkpt lat="44.80629" lon="1.59066">
        <ele>222</ele>
        <time>2016-03-07T10:57:41Z</time>
      </trkpt>
      <trkpt lat="44.80649" lon="1.59037">
        <ele>213</ele>
        <time>2016-03-07T10:57:46Z</time>
      </trkpt>
      <trkpt lat="44.80682" lon="1.59025">
        <ele>205</ele>
        <time>2016-03-07T10:57:51Z</time>
      </trkpt>
      <trkpt lat="44.80707" lon="1.59034">
        <ele>202</ele>
        <time>2016-03-07T10:57:56Z</time>
      </trkpt>
      <trkpt lat="44.80734" lon="1.59055">
        <ele>199</ele>
        <time>2016-03-07T10:58:01Z</time>
      </trkpt>
      <trkpt lat="44.80744" lon="1.59064">
        <ele>197</ele>
        <time>2016-03-07T10:58:06Z</time>
      </trkpt>
      <trkpt lat="44.8075" lon="1.5906">
        <ele>198</ele>
        <time>2016-03-07T10:58:11Z</time>
      </trkpt>
      <trkpt lat="44.80754" lon="1.59038">
        <ele>192</ele>
        <time>2016-03-07T10:58:16Z</time>
      </trkpt>
      <trkpt lat="44.80756" lon="1.59018">
        <ele>189</ele>
        <time>2016-03-07T10:58:21Z</time>
      </trkpt>
      <trkpt lat="44.80753" lon="1.59001">
        <ele>188</ele>
        <time>2016-03-07T10:58:26Z</time>
      </trkpt>
      <trkpt lat="44.80745" lon="1.58975">
        <ele>185</ele>
        <time>2016-03-07T10:58:31Z</time>
      </trkpt>
      <trkpt lat="44.80734" lon="1.58951">
        <ele>182</ele>
        <time>2016-03-07T10:58:36Z</time>
      </trkpt>
      <trkpt lat="44.8072" lon="1.58933">
        <ele>180</ele>
        <time>2016-03-07T10:58:41Z</time>
      </trkpt>
      <trkpt lat="44.80709" lon="1.58922">
        <ele>179</ele>
        <time>2016-03-07T10:58:46Z</time>
      </trkpt>
      <trkpt lat="44.80691" lon="1.58911">
        <ele>178</ele>
        <time>2016-03-07T10:58:51Z</time>
      </trkpt>
      <trkpt lat="44.80684" lon="1.58905">
        <ele>178</ele>
        <time>2016-03-07T10:58:56Z</time>
      </trkpt>
      <trkpt lat="44.80671" lon="1.58897">
        <ele>177</ele>
        <time>2016-03-07T10:59:01Z</time>
      </trkpt>
      <trkpt lat="44.8066" lon="1.58886">
        <ele>175</ele>
        <time>2016-03-07T10:59:06Z</time>
      </trkpt>
      <trkpt lat="44.80648" lon="1.5888">
        <ele>174</ele>
        <time>2016-03-07T10:59:11Z</time>
      </trkpt>
      <trkpt lat="44.80634" lon="1.58875">
        <ele>173</ele>
        <time>2016-03-07T10:59:16Z</time>
      </trkpt>
      <trkpt lat="44.80625" lon="1.58871">
        <ele>172</ele>
        <time>2016-03-07T10:59:21Z</time>
      </trkpt>
      <trkpt lat="44.80616" lon="1.58868">
        <ele>171</ele>
        <time>2016-03-07T10:59:26Z</time>
      </trkpt>
      <trkpt lat="44.80602" lon="1.5887">
        <ele>171</ele>
        <time>2016-03-07T10:59:31Z</time>
      </trkpt>
      <trkpt lat="44.80595" lon="1.58874">
        <ele>172</ele>
        <time>2016-03-07T10:59:36Z</time>
      </trkpt>
      <trkpt lat="44.80589" lon="1.58874">
        <ele>172</ele>
        <time>2016-03-07T10:59:41Z</time>
      </trkpt>
      <trkpt lat="44.80586" lon="1.58855">
        <ele>167</ele>
        <time>2016-03-07T10:59:46Z</time>
      </trkpt>
      <trkpt lat="44.80584" lon="1.58834">
        <ele>161</ele>
        <time>2016-03-07T10:59:51Z</time>
      </trkpt>
      <trkpt lat="44.80582" lon="1.5882">
        <ele>164</ele>
        <time>2016-03-07T10:59:56Z</time>
      </trkpt>
      <trkpt lat="44.8058" lon="1.58813">
        <ele>165</ele>
        <time>2016-03-07T11:00:01Z</time>
      </trkpt>
      <trkpt lat="44.80575" lon="1.58809">
        <ele>166</ele>
        <time>2016-03-07T11:00:06Z</time>
      </trkpt>
      <trkpt lat="44.8056" lon="1.58806">
        <ele>165</ele>
        <time>2016-03-07T11:00:11Z</time>
      </trkpt>
      <trkpt lat="44.80539" lon="1.58797">
        <ele>165</ele>
        <time>2016-03-07T11:00:16Z</time>
      </trkpt>
      <trkpt lat="44.80523" lon="1.58784">
        <ele>165</ele>
        <time>2016-03-07T11:00:21Z</time>
      </trkpt>
      <trkpt lat="44.80496" lon="1.58764">
        <ele>163</ele>
        <time>2016-03-07T11:00:26Z</time>
      </trkpt>
      <trkpt lat="44.80483" lon="1.5875">
        <ele>164</ele>
        <time>2016-03-07T11:00:31Z</time>
      </trkpt>
      <trkpt lat="44.80473" lon="1.58733">
        <ele>166</ele>
        <time>2016-03-07T11:00:36Z</time>
      </trkpt>
      <trkpt lat="44.80455" lon="1.58701">
        <ele>170</ele>
        <time>2016-03-07T11:00:41Z</time>
      </trkpt>
      <trkpt lat="44.80432" lon="1.58674">
        <ele>170</ele>
        <time>2016-03-07T11:00:46Z</time>
      </trkpt>
      <trkpt lat="44.80403" lon="1.58642">
        <ele>171</ele>
        <time>2016-03-07T11:00:51Z</time>
      </trkpt>
      <trkpt lat="44.80394" lon="1.58633">
        <ele>171</ele>
        <time>2016-03-07T11:00:56Z</time>
      </trkpt>
      <trkpt lat="44.80373" lon="1.58602">
        <ele>173</ele>
        <time>2016-03-07T11:01:01Z</time>
      </trkpt>
      <trkpt lat="44.80363" lon="1.58586">
        <ele>173</ele>
        <time>2016-03-07T11:01:06Z</time>
      </trkpt>
      <trkpt lat="44.80356" lon="1.5857">
        <ele>176</ele>
        <time>2016-03-07T11:01:11Z</time>
      </trkpt>
      <trkpt lat="44.80351" lon="1.58564">
        <ele>176</ele>
        <time>2016-03-07T11:01:16Z</time>
      </trkpt>
      <trkpt lat="44.8034" lon="1.58555">
        <ele>176</ele>
        <time>2016-03-07T11:01:21Z</time>
      </trkpt>
      <trkpt lat="44.80322" lon="1.58543">
        <ele>177</ele>
        <time>2016-03-07T11:01:26Z</time>
      </trkpt>
      <trkpt lat="44.803" lon="1.58535">
        <ele>177</ele>
        <time>2016-03-07T11:01:31Z</time>
      </trkpt>
      <trkpt lat="44.8028" lon="1.58524">
        <ele>178</ele>
        <time>2016-03-07T11:01:36Z</time>
      </trkpt>
      <trkpt lat="44.80266" lon="1.58514">
        <ele>180</ele>
        <time>2016-03-07T11:01:41Z</time>
      </trkpt>
      <trkpt lat="44.80254" lon="1.58508">
        <ele>181</ele>
        <time>2016-03-07T11:01:46Z</time>
      </trkpt>
      <trkpt lat="44.80229" lon="1.58499">
        <ele>181</ele>
        <time>2016-03-07T11:01:51Z</time>
      </trkpt>
      <trkpt lat="44.80205" lon="1.58486">
        <ele>181</ele>
        <time>2016-03-07T11:01:56Z</time>
      </trkpt>
      <trkpt lat="44.80178" lon="1.58466">
        <ele>183</ele>
        <time>2016-03-07T11:02:01Z</time>
      </trkpt>
      <trkpt lat="44.80169" lon="1.58458">
        <ele>183</ele>
        <time>2016-03-07T11:02:06Z</time>
      </trkpt>
      <trkpt lat="44.80158" lon="1.58451">
        <ele>184</ele>
        <time>2016-03-07T11:02:11Z</time>
      </trkpt>
      <trkpt lat="44.80143" lon="1.58436">
        <ele>186</ele>
        <time>2016-03-07T11:02:16Z</time>
      </trkpt>
      <trkpt lat="44.8013" lon="1.58419">
        <ele>188</ele>
        <time>2016-03-07T11:02:21Z</time>
      </trkpt>
      <trkpt lat="44.80127" lon="1.58403">
        <ele>189</ele>
        <time>2016-03-07T11:02:26Z</time>
      </trkpt>
      <trkpt lat="44.80111" lon="1.584">
        <ele>187</ele>
        <time>2016-03-07T11:02:31Z</time>
      </trkpt>
      <trkpt lat="44.80094" lon="1.58391">
        <ele>185</ele>
        <time>2016-03-07T11:02:36Z</time>
      </trkpt>
      <trkpt lat="44.80077" lon="1.58377">
        <ele>182</ele>
        <time>2016-03-07T11:02:41Z</time>
      </trkpt>
      <trkpt lat="44.80061" lon="1.58361">
        <ele>180</ele>
        <time>2016-03-07T11:02:46Z</time>
      </trkpt>
      <trkpt lat="44.80048" lon="1.58336">
        <ele>177</ele>
        <time>2016-03-07T11:02:51Z</time>
      </trkpt>
      <trkpt lat="44.80038" lon="1.58318">
        <ele>174</ele>
        <time>2016-03-07T11:02:56Z</time>
      </trkpt>
      <trkpt lat="44.80031" lon="1.58298">
        <ele>171</ele>
        <time>2016-03-07T11:03:01Z</time>
      </trkpt>
      <trkpt lat="44.8003" lon="1.58274">
        <ele>169</ele>
        <time>2016-03-07T11:03:06Z</time>
      </trkpt>
      <trkpt lat="44.80028" lon="1.58243">
        <ele>167</ele>
        <time>2016-03-07T11:03:11Z</time>
      </trkpt>
      <trkpt lat="44.80025" lon="1.58213">
        <ele>163</ele>
        <time>2016-03-07T11:03:16Z</time>
      </trkpt>
      <trkpt lat="44.80029" lon="1.58181">
        <ele>161</ele>
        <time>2016-03-07T11:03:21Z</time>
      </trkpt>
      <trkpt lat="44.80032" lon="1.5815">
        <ele>159</ele>
        <time>2016-03-07T11:03:26Z</time>
      </trkpt>
      <trkpt lat="44.80038" lon="1.58112">
        <ele>156</ele>
        <time>2016-03-07T11:03:31Z</time>
      </trkpt>
      <trkpt lat="44.80042" lon="1.58069">
        <ele>152</ele>
        <time>2016-03-07T11:03:36Z</time>
      </trkpt>
      <trkpt lat="44.80041" lon="1.58052">
        <ele>149</ele>
        <time>2016-03-07T11:03:41Z</time>
      </trkpt>
      <trkpt lat="44.80044" lon="1.58026">
        <ele>146</ele>
        <time>2016-03-07T11:03:46Z</time>
      </trkpt>
      <trkpt lat="44.80045" lon="1.58006">
        <ele>144</ele>
        <time>2016-03-07T11:03:51Z</time>
      </trkpt>
      <trkpt lat="44.80042" lon="1.57995">
        <ele>142</ele>
        <time>2016-03-07T11:03:56Z</time>
      </trkpt>
      <trkpt lat="44.80044" lon="1.57985">
        <ele>142</ele>
        <time>2016-03-07T11:04:01Z</time>
      </trkpt>
      <trkpt lat="44.80042" lon="1.57971">
        <ele>140</ele>
        <time>2016-03-07T11:04:06Z</time>
      </trkpt>
      <trkpt lat="44.80038" lon="1.57963">
        <ele>139</ele>
        <time>2016-03-07T11:04:11Z</time>
      </trkpt>
      <trkpt lat="44.80042" lon="1.57953">
        <ele>139</ele>
        <time>2016-03-07T11:04:16Z</time>
      </trkpt>
      <trkpt lat="44.80045" lon="1.57939">
        <ele>139</ele>
        <time>2016-03-07T11:04:21Z</time>
      </trkpt>
      <trkpt lat="44.80049" lon="1.57927">
        <ele>139</ele>
        <time>2016-03-07T11:04:26Z</time>
      </trkpt>
      <trkpt lat="44.80051" lon="1.57916">
        <ele>139</ele>
        <time>2016-03-07T11:04:31Z</time>
      </trkpt>
      <trkpt lat="44.80055" lon="1.57903">
        <ele>140</ele>
        <time>2016-03-07T11:04:36Z</time>
      </trkpt>
      <trkpt lat="44.80044" lon="1.57871">
        <ele>137</ele>
        <time>2016-03-07T11:04:41Z</time>
      </trkpt>
      <trkpt lat="44.80039" lon="1.57844">
        <ele>135</ele>
        <time>2016-03-07T11:04:46Z</time>
      </trkpt>
      <trkpt lat="44.80036" lon="1.57818">
        <ele>133</ele>
        <time>2016-03-07T11:04:51Z</time>
      </trkpt>
      <trkpt lat="44.80029" lon="1.57793">
        <ele>131</ele>
        <time>2016-03-07T11:04:56Z</time>
      </trkpt>
      <trkpt lat="44.80023" lon="1.57774">
        <ele>129</ele>
        <time>2016-03-07T11:05:01Z</time>
      </trkpt>
      <trkpt lat="44.80014" lon="1.57742">
        <ele>125</ele>
        <time>2016-03-07T11:05:06Z</time>
      </trkpt>
      <trkpt lat="44.80008" lon="1.57725">
        <ele>123</ele>
        <time>2016-03-07T11:05:11Z</time>
      </trkpt>
      <trkpt lat="44.79996" lon="1.57713">
        <ele>122</ele>
        <time>2016-03-07T11:05:16Z</time>
      </trkpt>
      <trkpt lat="44.79986" lon="1.57694">
        <ele>123</ele>
        <time>2016-03-07T11:05:21Z</time>
      </trkpt>
      <trkpt lat="44.79987" lon="1.57672">
        <ele>122</ele>
        <time>2016-03-07T11:05:26Z</time>
      </trkpt>
      <trkpt lat="44.79992" lon="1.57662">
        <ele>122</ele>
        <time>2016-03-07T11:05:31Z</time>
      </trkpt>
      <trkpt lat="44.79998" lon="1.57652">
        <ele>121</ele>
        <time>2016-03-07T11:05:36Z</time>
      </trkpt>
      <trkpt lat="44.80014" lon="1.5763">
        <ele>124</ele>
        <time>2016-03-07T11:05:41Z</time>
      </trkpt>
      <trkpt lat="44.80026" lon="1.57608">
        <ele>125</ele>
        <time>2016-03-07T11:05:46Z</time>
      </trkpt>
      <trkpt lat="44.80035" lon="1.57582">
        <ele>125</ele>
        <time>2016-03-07T11:05:51Z</time>
      </trkpt>
      <trkpt lat="44.80039" lon="1.57562">
        <ele>125</ele>
        <time>2016-03-07T11:05:56Z</time>
      </trkpt>
      <trkpt lat="44.80041" lon="1.57546">
        <ele>124</ele>
        <time>2016-03-07T11:06:01Z</time>
      </trkpt>
      <trkpt lat="44.80039" lon="1.57524">
        <ele>124</ele>
        <time>2016-03-07T11:06:06Z</time>
      </trkpt>
      <trkpt lat="44.80038" lon="1.57497">
        <ele>124</ele>
        <time>2016-03-07T11:06:11Z</time>
      </trkpt>
      <trkpt lat="44.80038" lon="1.57476">
        <ele>123</ele>
        <time>2016-03-07T11:06:16Z</time>
      </trkpt>
      <trkpt lat="44.80033" lon="1.57462">
        <ele>123</ele>
        <time>2016-03-07T11:06:21Z</time>
      </trkpt>
      <trkpt lat="44.80024" lon="1.57463">
        <ele>124</ele>
        <time>2016-03-07T11:06:26Z</time>
      </trkpt>
      <trkpt lat="44.80016" lon="1.57472">
        <ele>125</ele>
        <time>2016-03-07T11:06:31Z</time>
      </trkpt>
      <trkpt lat="44.79999" lon="1.57487">
        <ele>127</ele>
        <time>2016-03-07T11:06:36Z</time>
      </trkpt>
      <trkpt lat="44.79986" lon="1.57509">
        <ele>128</ele>
        <time>2016-03-07T11:06:41Z</time>
      </trkpt>
      <trkpt lat="44.79975" lon="1.57518">
        <ele>128</ele>
        <time>2016-03-07T11:06:46Z</time>
      </trkpt>
      <trkpt lat="44.7996" lon="1.57523">
        <ele>129</ele>
        <time>2016-03-07T11:06:51Z</time>
      </trkpt>
      <trkpt lat="44.79927" lon="1.57527">
        <ele>131</ele>
        <time>2016-03-07T11:06:56Z</time>
      </trkpt>
      <trkpt lat="44.79907" lon="1.57521">
        <ele>132</ele>
        <time>2016-03-07T11:07:01Z</time>
      </trkpt>
      <trkpt lat="44.79893" lon="1.57513">
        <ele>132</ele>
        <time>2016-03-07T11:07:06Z</time>
      </trkpt>
      <trkpt lat="44.79864" lon="1.57499">
        <ele>131</ele>
        <time>2016-03-07T11:07:11Z</time>
      </trkpt>
      <trkpt lat="44.79847" lon="1.57492">
        <ele>131</ele>
        <time>2016-03-07T11:07:16Z</time>
      </trkpt>
      <trkpt lat="44.79826" lon="1.57485">
        <ele>132</ele>
        <time>2016-03-07T11:07:21Z</time>
      </trkpt>
      <trkpt lat="44.79808" lon="1.57477">
        <ele>135</ele>
        <time>2016-03-07T11:07:26Z</time>
      </trkpt>
      <trkpt lat="44.7979" lon="1.57468">
        <ele>138</ele>
        <time>2016-03-07T11:07:31Z</time>
      </trkpt>
      <trkpt lat="44.79777" lon="1.57463">
        <ele>141</ele>
        <time>2016-03-07T11:07:36Z</time>
      </trkpt>
      <trkpt lat="44.7976" lon="1.57459">
        <ele>144</ele>
        <time>2016-03-07T11:07:41Z</time>
      </trkpt>
      <trkpt lat="44.79743" lon="1.57451">
        <ele>148</ele>
        <time>2016-03-07T11:07:46Z</time>
      </trkpt>
      <trkpt lat="44.79734" lon="1.57446">
        <ele>152</ele>
        <time>2016-03-07T11:07:51Z</time>
      </trkpt>
      <trkpt lat="44.79727" lon="1.57419">
        <ele>155</ele>
        <time>2016-03-07T11:07:56Z</time>
      </trkpt>
      <trkpt lat="44.79725" lon="1.57402">
        <ele>157</ele>
        <time>2016-03-07T11:08:01Z</time>
      </trkpt>
      <trkpt lat="44.79725" lon="1.57372">
        <ele>160</ele>
        <time>2016-03-07T11:08:06Z</time>
      </trkpt>
      <trkpt lat="44.79726" lon="1.57345">
        <ele>162</ele>
        <time>2016-03-07T11:08:11Z</time>
      </trkpt>
      <trkpt lat="44.79726" lon="1.57333">
        <ele>164</ele>
        <time>2016-03-07T11:08:16Z</time>
      </trkpt>
      <trkpt lat="44.7973" lon="1.57315">
        <ele>164</ele>
        <time>2016-03-07T11:08:21Z</time>
      </trkpt>
      <trkpt lat="44.79737" lon="1.5727">
        <ele>166</ele>
        <time>2016-03-07T11:08:26Z</time>
      </trkpt>
      <trkpt lat="44.7974" lon="1.57247">
        <ele>168</ele>
        <time>2016-03-07T11:08:31Z</time>
      </trkpt>
      <trkpt lat="44.79742" lon="1.57225">
        <ele>170</ele>
        <time>2016-03-07T11:08:36Z</time>
      </trkpt>
      <trkpt lat="44.79741" lon="1.57196">
        <ele>173</ele>
        <time>2016-03-07T11:08:41Z</time>
      </trkpt>
      <trkpt lat="44.79741" lon="1.5716">
        <ele>177</ele>
        <time>2016-03-07T11:08:46Z</time>
      </trkpt>
      <trkpt lat="44.7974" lon="1.57153">
        <ele>178</ele>
        <time>2016-03-07T11:08:51Z</time>
      </trkpt>
      <trkpt lat="44.79739" lon="1.57137">
        <ele>179</ele>
        <time>2016-03-07T11:08:56Z</time>
      </trkpt>
      <trkpt lat="44.79738" lon="1.57114">
        <ele>181</ele>
        <time>2016-03-07T11:09:01Z</time>
      </trkpt>
      <trkpt lat="44.79733" lon="1.57103">
        <ele>181</ele>
        <time>2016-03-07T11:09:06Z</time>
      </trkpt>
      <trkpt lat="44.79726" lon="1.57101">
        <ele>181</ele>
        <time>2016-03-07T11:09:11Z</time>
      </trkpt>
      <trkpt lat="44.79717" lon="1.57106">
        <ele>181</ele>
        <time>2016-03-07T11:09:16Z</time>
      </trkpt>
      <trkpt lat="44.79702" lon="1.57153">
        <ele>180</ele>
        <time>2016-03-07T11:09:21Z</time>
      </trkpt>
      <trkpt lat="44.79666" lon="1.57232">
        <ele>184</ele>
        <time>2016-03-07T11:09:26Z</time>
      </trkpt>
      <trkpt lat="44.79655" lon="1.57255">
        <ele>183</ele>
        <time>2016-03-07T11:09:31Z</time>
      </trkpt>
      <trkpt lat="44.7962" lon="1.57292">
        <ele>184</ele>
        <time>2016-03-07T11:09:36Z</time>
      </trkpt>
      <trkpt lat="44.79604" lon="1.57303">
        <ele>185</ele>
        <time>2016-03-07T11:09:41Z</time>
      </trkpt>
      <trkpt lat="44.79583" lon="1.5731">
        <ele>187</ele>
        <time>2016-03-07T11:09:46Z</time>
      </trkpt>
      <trkpt lat="44.79558" lon="1.57316">
        <ele>183</ele>
        <time>2016-03-07T11:09:51Z</time>
      </trkpt>
      <trkpt lat="44.79492" lon="1.57352">
        <ele>178</ele>
        <time>2016-03-07T11:09:56Z</time>
      </trkpt>
      <trkpt lat="44.79452" lon="1.57379">
        <ele>173</ele>
        <time>2016-03-07T11:10:01Z</time>
      </trkpt>
      <trkpt lat="44.79433" lon="1.574">
        <ele>173</ele>
        <time>2016-03-07T11:10:06Z</time>
      </trkpt>
      <trkpt lat="44.79414" lon="1.5743">
        <ele>174</ele>
        <time>2016-03-07T11:10:11Z</time>
      </trkpt>
      <trkpt lat="44.79411" lon="1.57436">
        <ele>174</ele>
        <time>2016-03-07T11:10:16Z</time>
      </trkpt>
      <trkpt lat="44.79379" lon="1.57494">
        <ele>172</ele>
        <time>2016-03-07T11:10:21Z</time>
      </trkpt>
      <trkpt lat="44.79363" lon="1.57516">
        <ele>169</ele>
        <time>2016-03-07T11:10:26Z</time>
      </trkpt>
      <trkpt lat="44.79314" lon="1.57591">
        <ele>164</ele>
        <time>2016-03-07T11:10:31Z</time>
      </trkpt>
      <trkpt lat="44.7929" lon="1.57625">
        <ele>161</ele>
        <time>2016-03-07T11:10:36Z</time>
      </trkpt>
      <trkpt lat="44.79252" lon="1.57682">
        <ele>155</ele>
        <time>2016-03-07T11:10:41Z</time>
      </trkpt>
      <trkpt lat="44.79233" lon="1.57708">
        <ele>152</ele>
        <time>2016-03-07T11:10:46Z</time>
      </trkpt>
      <trkpt lat="44.79218" lon="1.57726">
        <ele>150</ele>
        <time>2016-03-07T11:10:51Z</time>
      </trkpt>
      <trkpt lat="44.79171" lon="1.57778">
        <ele>141</ele>
        <time>2016-03-07T11:10:56Z</time>
      </trkpt>
      <trkpt lat="44.79152" lon="1.57803">
        <ele>138</ele>
        <time>2016-03-07T11:11:01Z</time>
      </trkpt>
      <trkpt lat="44.79146" lon="1.57813">
        <ele>138</ele>
        <time>2016-03-07T11:11:06Z</time>
      </trkpt>
      <trkpt lat="44.79142" lon="1.57817">
        <ele>137</ele>
        <time>2016-03-07T11:11:11Z</time>
      </trkpt>
      <trkpt lat="44.79135" lon="1.57835">
        <ele>136</ele>
        <time>2016-03-07T11:11:16Z</time>
      </trkpt>
      <trkpt lat="44.79132" lon="1.57849">
        <ele>136</ele>
        <time>2016-03-07T11:11:21Z</time>
      </trkpt>
      <trkpt lat="44.7913" lon="1.57873">
        <ele>135</ele>
        <time>2016-03-07T11:11:26Z</time>
      </trkpt>
      <trkpt lat="44.7913" lon="1.57897">
        <ele>135</ele>
        <time>2016-03-07T11:11:31Z</time>
      </trkpt>
      <trkpt lat="44.79132" lon="1.57931">
        <ele>136</ele>
        <time>2016-03-07T11:11:36Z</time>
      </trkpt>
      <trkpt lat="44.79142" lon="1.58027">
        <ele>136</ele>
        <time>2016-03-07T11:11:41Z</time>
      </trkpt>
      <trkpt lat="44.79141" lon="1.58069">
        <ele>134</ele>
        <time>2016-03-07T11:11:46Z</time>
      </trkpt>
      <trkpt lat="44.79141" lon="1.58084">
        <ele>133</ele>
        <time>2016-03-07T11:11:51Z</time>
      </trkpt>
      <trkpt lat="44.79142" lon="1.58102">
        <ele>133</ele>
        <time>2016-03-07T11:11:56Z</time>
      </trkpt>
      <trkpt lat="44.79145" lon="1.58119">
        <ele>133</ele>
        <time>2016-03-07T11:12:01Z</time>
      </trkpt>
      <trkpt lat="44.79139" lon="1.58125">
        <ele>131</ele>
        <time>2016-03-07T11:12:06Z</time>
      </trkpt>
      <trkpt lat="44.79136" lon="1.58143">
        <ele>129</ele>
        <time>2016-03-07T11:12:11Z</time>
      </trkpt>
      <trkpt lat="44.79135" lon="1.58157">
        <ele>128</ele>
        <time>2016-03-07T11:12:16Z</time>
      </trkpt>
      <trkpt lat="44.79137" lon="1.58169">
        <ele>128</ele>
        <time>2016-03-07T11:12:21Z</time>
      </trkpt>
      <trkpt lat="44.79138" lon="1.58177">
        <ele>128</ele>
        <time>2016-03-07T11:12:26Z</time>
      </trkpt>
      <trkpt lat="44.79138" lon="1.58222">
        <ele>126</ele>
        <time>2016-03-07T11:12:31Z</time>
      </trkpt>
      <trkpt lat="44.79137" lon="1.58234">
        <ele>125</ele>
        <time>2016-03-07T11:12:36Z</time>
      </trkpt>
      <trkpt lat="44.79134" lon="1.58248">
        <ele>124</ele>
        <time>2016-03-07T11:12:41Z</time>
      </trkpt>
      <trkpt lat="44.79133" lon="1.58261">
        <ele>124</ele>
        <time>2016-03-07T11:12:46Z</time>
      </trkpt>
      <trkpt lat="44.79137" lon="1.5827">
        <ele>125</ele>
        <time>2016-03-07T11:12:51Z</time>
      </trkpt>
      <trkpt lat="44.79137" lon="1.5828">
        <ele>126</ele>
        <time>2016-03-07T11:12:56Z</time>
      </trkpt>
      <trkpt lat="44.79127" lon="1.58295">
        <ele>124</ele>
        <time>2016-03-07T11:13:01Z</time>
      </trkpt>
      <trkpt lat="44.79124" lon="1.58303">
        <ele>124</ele>
        <time>2016-03-07T11:13:06Z</time>
      </trkpt>
      <trkpt lat="44.79118" lon="1.58314">
        <ele>123</ele>
        <time>2016-03-07T11:13:11Z</time>
      </trkpt>
      <trkpt lat="44.79112" lon="1.58328">
        <ele>123</ele>
        <time>2016-03-07T11:13:16Z</time>
      </trkpt>
      <trkpt lat="44.79098" lon="1.58352">
        <ele>121</ele>
        <time>2016-03-07T11:13:21Z</time>
      </trkpt>
      <trkpt lat="44.79092" lon="1.58363">
        <ele>120</ele>
        <time>2016-03-07T11:13:26Z</time>
      </trkpt>
      <trkpt lat="44.79085" lon="1.58368">
        <ele>119</ele>
        <time>2016-03-07T11:13:31Z</time>
      </trkpt>
      <trkpt lat="44.79077" lon="1.58376">
        <ele>119</ele>
        <time>2016-03-07T11:13:36Z</time>
      </trkpt>
      <trkpt lat="44.79064" lon="1.58394">
        <ele>121</ele>
        <time>2016-03-07T11:13:41Z</time>
      </trkpt>
      <trkpt lat="44.7905" lon="1.58391">
        <ele>122</ele>
        <time>2016-03-07T11:13:46Z</time>
      </trkpt>
      <trkpt lat="44.79018" lon="1.58392">
        <ele>125</ele>
        <time>2016-03-07T11:13:51Z</time>
      </trkpt>
      <trkpt lat="44.79038" lon="1.58404">
        <ele>123</ele>
        <time>2016-03-07T11:13:56Z</time>
      </trkpt>
      <trkpt lat="44.79046" lon="1.58402">
        <ele>122</ele>
        <time>2016-03-07T11:14:01Z</time>
      </trkpt>
      <trkpt lat="44.79066" lon="1.58417">
        <ele>121</ele>
        <time>2016-03-07T11:14:06Z</time>
      </trkpt>
      <trkpt lat="44.79074" lon="1.58421">
        <ele>121</ele>
        <time>2016-03-07T11:14:11Z</time>
      </trkpt>
      <trkpt lat="44.79091" lon="1.58434">
        <ele>122</ele>
        <time>2016-03-07T11:14:16Z</time>
      </trkpt>
      <trkpt lat="44.79104" lon="1.58442">
        <ele>124</ele>
        <time>2016-03-07T11:14:21Z</time>
      </trkpt>
      <trkpt lat="44.79119" lon="1.58454">
        <ele>127</ele>
        <time>2016-03-07T11:14:26Z</time>
      </trkpt>
      <trkpt lat="44.79133" lon="1.58467">
        <ele>129</ele>
        <time>2016-03-07T11:14:31Z</time>
      </trkpt>
      <trkpt lat="44.79148" lon="1.58494">
        <ele>130</ele>
        <time>2016-03-07T11:14:36Z</time>
      </trkpt>
      <trkpt lat="44.79158" lon="1.58514">
        <ele>130</ele>
        <time>2016-03-07T11:14:41Z</time>
      </trkpt>
      <trkpt lat="44.79166" lon="1.58524">
        <ele>130</ele>
        <time>2016-03-07T11:14:46Z</time>
      </trkpt>
      <trkpt lat="44.79174" lon="1.58537">
        <ele>131</ele>
        <time>2016-03-07T11:14:51Z</time>
      </trkpt>
      <trkpt lat="44.79182" lon="1.58546">
        <ele>133</ele>
        <time>2016-03-07T11:14:56Z</time>
      </trkpt>
      <trkpt lat="44.79191" lon="1.58552">
        <ele>135</ele>
        <time>2016-03-07T11:15:01Z</time>
      </trkpt>
      <trkpt lat="44.79199" lon="1.58555">
        <ele>137</ele>
        <time>2016-03-07T11:15:06Z</time>
      </trkpt>
      <trkpt lat="44.79207" lon="1.5856">
        <ele>139</ele>
        <time>2016-03-07T11:15:11Z</time>
      </trkpt>
      <trkpt lat="44.79212" lon="1.58565">
        <ele>140</ele>
        <time>2016-03-07T11:15:16Z</time>
      </trkpt>
      <trkpt lat="44.79224" lon="1.58584">
        <ele>142</ele>
        <time>2016-03-07T11:15:21Z</time>
      </trkpt>
      <trkpt lat="44.79231" lon="1.58593">
        <ele>143</ele>
        <time>2016-03-07T11:15:26Z</time>
      </trkpt>
      <trkpt lat="44.79242" lon="1.58628">
        <ele>143</ele>
        <time>2016-03-07T11:15:31Z</time>
      </trkpt>
      <trkpt lat="44.79245" lon="1.5864">
        <ele>143</ele>
        <time>2016-03-07T11:15:36Z</time>
      </trkpt>
      <trkpt lat="44.79251" lon="1.58678">
        <ele>142</ele>
        <time>2016-03-07T11:15:41Z</time>
      </trkpt>
      <trkpt lat="44.79253" lon="1.58688">
        <ele>142</ele>
        <time>2016-03-07T11:15:46Z</time>
      </trkpt>
      <trkpt lat="44.79259" lon="1.58722">
        <ele>143</ele>
        <time>2016-03-07T11:15:51Z</time>
      </trkpt>
      <trkpt lat="44.79264" lon="1.58763">
        <ele>144</ele>
        <time>2016-03-07T11:15:56Z</time>
      </trkpt>
      <trkpt lat="44.79266" lon="1.58776">
        <ele>145</ele>
        <time>2016-03-07T11:16:01Z</time>
      </trkpt>
      <trkpt lat="44.79268" lon="1.58806">
        <ele>147</ele>
        <time>2016-03-07T11:16:06Z</time>
      </trkpt>
      <trkpt lat="44.7927" lon="1.58822">
        <ele>148</ele>
        <time>2016-03-07T11:16:11Z</time>
      </trkpt>
      <trkpt lat="44.79273" lon="1.58854">
        <ele>149</ele>
        <time>2016-03-07T11:16:16Z</time>
      </trkpt>
      <trkpt lat="44.79275" lon="1.58889">
        <ele>150</ele>
        <time>2016-03-07T11:16:21Z</time>
      </trkpt>
      <trkpt lat="44.79275" lon="1.58947">
        <ele>150</ele>
        <time>2016-03-07T11:16:26Z</time>
      </trkpt>
      <trkpt lat="44.79276" lon="1.58962">
        <ele>150</ele>
        <time>2016-03-07T11:16:31Z</time>
      </trkpt>
      <trkpt lat="44.7928" lon="1.58996">
        <ele>151</ele>
        <time>2016-03-07T11:16:36Z</time>
      </trkpt>
      <trkpt lat="44.79281" lon="1.59009">
        <ele>151</ele>
        <time>2016-03-07T11:16:41Z</time>
      </trkpt>
      <trkpt lat="44.79281" lon="1.59023">
        <ele>151</ele>
        <time>2016-03-07T11:16:46Z</time>
      </trkpt>
      <trkpt lat="44.79276" lon="1.59101">
        <ele>150</ele>
        <time>2016-03-07T11:16:51Z</time>
      </trkpt>
      <trkpt lat="44.79279" lon="1.59112">
        <ele>150</ele>
        <time>2016-03-07T11:16:56Z</time>
      </trkpt>
      <trkpt lat="44.79281" lon="1.59124">
        <ele>150</ele>
        <time>2016-03-07T11:17:01Z</time>
      </trkpt>
      <trkpt lat="44.79284" lon="1.59138">
        <ele>150</ele>
        <time>2016-03-07T11:17:06Z</time>
      </trkpt>
      <trkpt lat="44.79286" lon="1.5915">
        <ele>149</ele>
        <time>2016-03-07T11:17:11Z</time>
      </trkpt>
      <trkpt lat="44.79285" lon="1.59161">
        <ele>149</ele>
        <time>2016-03-07T11:17:16Z</time>
      </trkpt>
      <trkpt lat="44.79283" lon="1.59177">
        <ele>149</ele>
        <time>2016-03-07T11:17:21Z</time>
      </trkpt>
      <trkpt lat="44.79276" lon="1.59198">
        <ele>150</ele>
        <time>2016-03-07T11:17:26Z</time>
      </trkpt>
      <trkpt lat="44.79268" lon="1.59231">
        <ele>152</ele>
        <time>2016-03-07T11:17:31Z</time>
      </trkpt>
      <trkpt lat="44.79264" lon="1.59248">
        <ele>153</ele>
        <time>2016-03-07T11:17:36Z</time>
      </trkpt>
      <trkpt lat="44.79257" lon="1.59284">
        <ele>155</ele>
        <time>2016-03-07T11:17:41Z</time>
      </trkpt>
      <trkpt lat="44.79256" lon="1.59327">
        <ele>155</ele>
        <time>2016-03-07T11:17:46Z</time>
      </trkpt>
      <trkpt lat="44.79262" lon="1.59399">
        <ele>159</ele>
        <time>2016-03-07T11:17:51Z</time>
      </trkpt>
      <trkpt lat="44.79267" lon="1.59421">
        <ele>159</ele>
        <time>2016-03-07T11:17:56Z</time>
      </trkpt>
      <trkpt lat="44.79274" lon="1.59447">
        <ele>159</ele>
        <time>2016-03-07T11:18:01Z</time>
      </trkpt>
      <trkpt lat="44.79282" lon="1.59462">
        <ele>158</ele>
        <time>2016-03-07T11:18:06Z</time>
      </trkpt>
      <trkpt lat="44.79293" lon="1.59482">
        <ele>155</ele>
        <time>2016-03-07T11:18:11Z</time>
      </trkpt>
      <trkpt lat="44.79317" lon="1.59536">
        <ele>153</ele>
        <time>2016-03-07T11:18:16Z</time>
      </trkpt>
      <trkpt lat="44.79323" lon="1.59547">
        <ele>153</ele>
        <time>2016-03-07T11:18:21Z</time>
      </trkpt>
      <trkpt lat="44.79333" lon="1.5956">
        <ele>155</ele>
        <time>2016-03-07T11:18:26Z</time>
      </trkpt>
      <trkpt lat="44.79356" lon="1.59577">
        <ele>149</ele>
        <time>2016-03-07T11:18:31Z</time>
      </trkpt>
      <trkpt lat="44.79375" lon="1.59599">
        <ele>149</ele>
        <time>2016-03-07T11:18:36Z</time>
      </trkpt>
      <trkpt lat="44.79401" lon="1.59619">
        <ele>148</ele>
        <time>2016-03-07T11:18:41Z</time>
      </trkpt>
      <trkpt lat="44.79412" lon="1.5962">
        <ele>145</ele>
        <time>2016-03-07T11:18:46Z</time>
      </trkpt>
      <trkpt lat="44.79422" lon="1.59611">
        <ele>142</ele>
        <time>2016-03-07T11:18:51Z</time>
      </trkpt>
      <trkpt lat="44.79439" lon="1.59591">
        <ele>140</ele>
        <time>2016-03-07T11:18:56Z</time>
      </trkpt>
      <trkpt lat="44.79454" lon="1.59574">
        <ele>142</ele>
        <time>2016-03-07T11:19:01Z</time>
      </trkpt>
      <trkpt lat="44.79461" lon="1.59573">
        <ele>144</ele>
        <time>2016-03-07T11:19:06Z</time>
      </trkpt>
      <trkpt lat="44.79469" lon="1.5958">
        <ele>144</ele>
        <time>2016-03-07T11:19:11Z</time>
      </trkpt>
      <trkpt lat="44.7949" lon="1.59595">
        <ele>146</ele>
        <time>2016-03-07T11:19:16Z</time>
      </trkpt>
      <trkpt lat="44.79519" lon="1.5961">
        <ele>151</ele>
        <time>2016-03-07T11:19:21Z</time>
      </trkpt>
      <trkpt lat="44.79543" lon="1.5963">
        <ele>153</ele>
        <time>2016-03-07T11:19:26Z</time>
      </trkpt>
      <trkpt lat="44.79554" lon="1.59641">
        <ele>153</ele>
        <time>2016-03-07T11:19:31Z</time>
      </trkpt>
      <trkpt lat="44.79583" lon="1.59673">
        <ele>150</ele>
        <time>2016-03-07T11:19:36Z</time>
      </trkpt>
      <trkpt lat="44.79604" lon="1.59695">
        <ele>157</ele>
        <time>2016-03-07T11:19:41Z</time>
      </trkpt>
      <trkpt lat="44.79613" lon="1.59715">
        <ele>158</ele>
        <time>2016-03-07T11:19:46Z</time>
      </trkpt>
      <trkpt lat="44.79619" lon="1.59733">
        <ele>158</ele>
        <time>2016-03-07T11:19:51Z</time>
      </trkpt>
      <trkpt lat="44.79623" lon="1.5975">
        <ele>157</ele>
        <time>2016-03-07T11:19:56Z</time>
      </trkpt>
      <trkpt lat="44.79624" lon="1.59764">
        <ele>158</ele>
        <time>2016-03-07T11:20:01Z</time>
      </trkpt>
      <trkpt lat="44.79625" lon="1.59776">
        <ele>158</ele>
        <time>2016-03-07T11:20:06Z</time>
      </trkpt>
      <trkpt lat="44.79622" lon="1.59802">
        <ele>157</ele>
        <time>2016-03-07T11:20:11Z</time>
      </trkpt>
      <trkpt lat="44.79612" lon="1.59832">
        <ele>152</ele>
        <time>2016-03-07T11:20:16Z</time>
      </trkpt>
      <trkpt lat="44.79601" lon="1.59857">
        <ele>153</ele>
        <time>2016-03-07T11:20:21Z</time>
      </trkpt>
      <trkpt lat="44.79583" lon="1.5988">
        <ele>151</ele>
        <time>2016-03-07T11:20:26Z</time>
      </trkpt>
      <trkpt lat="44.79568" lon="1.59893">
        <ele>153</ele>
        <time>2016-03-07T11:20:31Z</time>
      </trkpt>
      <trkpt lat="44.79558" lon="1.59902">
        <ele>153</ele>
        <time>2016-03-07T11:20:36Z</time>
      </trkpt>
      <trkpt lat="44.79544" lon="1.59911">
        <ele>151</ele>
        <time>2016-03-07T11:20:41Z</time>
      </trkpt>
      <trkpt lat="44.79535" lon="1.59919">
        <ele>150</ele>
        <time>2016-03-07T11:20:46Z</time>
      </trkpt>
      <trkpt lat="44.79525" lon="1.59926">
        <ele>150</ele>
        <time>2016-03-07T11:20:51Z</time>
      </trkpt>
      <trkpt lat="44.79516" lon="1.59931">
        <ele>148</ele>
        <time>2016-03-07T11:20:56Z</time>
      </trkpt>
      <trkpt lat="44.79496" lon="1.59943">
        <ele>146</ele>
        <time>2016-03-07T11:21:01Z</time>
      </trkpt>
      <trkpt lat="44.79481" lon="1.59951">
        <ele>147</ele>
        <time>2016-03-07T11:21:06Z</time>
      </trkpt>
      <trkpt lat="44.79468" lon="1.59959">
        <ele>147</ele>
        <time>2016-03-07T11:21:11Z</time>
      </trkpt>
      <trkpt lat="44.79462" lon="1.59967">
        <ele>147</ele>
        <time>2016-03-07T11:21:16Z</time>
      </trkpt>
      <trkpt lat="44.79451" lon="1.59983">
        <ele>146</ele>
        <time>2016-03-07T11:21:21Z</time>
      </trkpt>
      <trkpt lat="44.79439" lon="1.60006">
        <ele>144</ele>
        <time>2016-03-07T11:21:26Z</time>
      </trkpt>
      <trkpt lat="44.79431" lon="1.60025">
        <ele>143</ele>
        <time>2016-03-07T11:21:31Z</time>
      </trkpt>
      <trkpt lat="44.79428" lon="1.60058">
        <ele>143</ele>
        <time>2016-03-07T11:21:36Z</time>
      </trkpt>
      <trkpt lat="44.79427" lon="1.60092">
        <ele>144</ele>
        <time>2016-03-07T11:21:41Z</time>
      </trkpt>
      <trkpt lat="44.79428" lon="1.60112">
        <ele>143</ele>
        <time>2016-03-07T11:21:46Z</time>
      </trkpt>
      <trkpt lat="44.79433" lon="1.60122">
        <ele>144</ele>
        <time>2016-03-07T11:21:51Z</time>
      </trkpt>
      <trkpt lat="44.79444" lon="1.60139">
        <ele>146</ele>
        <time>2016-03-07T11:21:56Z</time>
      </trkpt>
      <trkpt lat="44.79457" lon="1.60162">
        <ele>147</ele>
        <time>2016-03-07T11:22:01Z</time>
      </trkpt>
      <trkpt lat="44.79487" lon="1.60236">
        <ele>146</ele>
        <time>2016-03-07T11:22:06Z</time>
      </trkpt>
      <trkpt lat="44.79501" lon="1.60262">
        <ele>142</ele>
        <time>2016-03-07T11:22:11Z</time>
      </trkpt>
      <trkpt lat="44.79514" lon="1.60281">
        <ele>147</ele>
        <time>2016-03-07T11:22:16Z</time>
      </trkpt>
      <trkpt lat="44.79534" lon="1.60317">
        <ele>151</ele>
        <time>2016-03-07T11:22:21Z</time>
      </trkpt>
      <trkpt lat="44.79548" lon="1.60341">
        <ele>153</ele>
        <time>2016-03-07T11:22:26Z</time>
      </trkpt>
      <trkpt lat="44.79564" lon="1.60371">
        <ele>153</ele>
        <time>2016-03-07T11:22:31Z</time>
      </trkpt>
      <trkpt lat="44.79575" lon="1.60397">
        <ele>151</ele>
        <time>2016-03-07T11:22:36Z</time>
      </trkpt>
      <trkpt lat="44.79578" lon="1.60413">
        <ele>148</ele>
        <time>2016-03-07T11:22:41Z</time>
      </trkpt>
      <trkpt lat="44.79579" lon="1.6043">
        <ele>148</ele>
        <time>2016-03-07T11:22:46Z</time>
      </trkpt>
      <trkpt lat="44.79575" lon="1.60451">
        <ele>147</ele>
        <time>2016-03-07T11:22:51Z</time>
      </trkpt>
      <trkpt lat="44.79569" lon="1.60484">
        <ele>147</ele>
        <time>2016-03-07T11:22:56Z</time>
      </trkpt>
      <trkpt lat="44.79562" lon="1.60513">
        <ele>149</ele>
        <time>2016-03-07T11:23:01Z</time>
      </trkpt>
      <trkpt lat="44.79534" lon="1.60577">
        <ele>150</ele>
        <time>2016-03-07T11:23:06Z</time>
      </trkpt>
      <trkpt lat="44.79519" lon="1.6061">
        <ele>147</ele>
        <time>2016-03-07T11:23:11Z</time>
      </trkpt>
      <trkpt lat="44.79504" lon="1.60649">
        <ele>143</ele>
        <time>2016-03-07T11:23:16Z</time>
      </trkpt>
      <trkpt lat="44.79497" lon="1.60678">
        <ele>143</ele>
        <time>2016-03-07T11:23:21Z</time>
      </trkpt>
      <trkpt lat="44.79495" lon="1.60697">
        <ele>143</ele>
        <time>2016-03-07T11:23:26Z</time>
      </trkpt>
      <trkpt lat="44.79494" lon="1.60714">
        <ele>143</ele>
        <time>2016-03-07T11:23:31Z</time>
      </trkpt>
      <trkpt lat="44.79496" lon="1.60729">
        <ele>142</ele>
        <time>2016-03-07T11:23:36Z</time>
      </trkpt>
      <trkpt lat="44.79499" lon="1.60743">
        <ele>141</ele>
        <time>2016-03-07T11:23:41Z</time>
      </trkpt>
      <trkpt lat="44.79507" lon="1.60767">
        <ele>143</ele>
        <time>2016-03-07T11:23:46Z</time>
      </trkpt>
      <trkpt lat="44.79516" lon="1.60782">
        <ele>146</ele>
        <time>2016-03-07T11:23:51Z</time>
      </trkpt>
      <trkpt lat="44.7953" lon="1.60797">
        <ele>149</ele>
        <time>2016-03-07T11:23:56Z</time>
      </trkpt>
      <trkpt lat="44.79573" lon="1.60833">
        <ele>152</ele>
        <time>2016-03-07T11:24:01Z</time>
      </trkpt>
      <trkpt lat="44.79606" lon="1.60869">
        <ele>156</ele>
        <time>2016-03-07T11:24:06Z</time>
      </trkpt>
      <trkpt lat="44.7963" lon="1.60892">
        <ele>158</ele>
        <time>2016-03-07T11:24:11Z</time>
      </trkpt>
      <trkpt lat="44.79643" lon="1.60908">
        <ele>156</ele>
        <time>2016-03-07T11:24:16Z</time>
      </trkpt>
      <trkpt lat="44.7968" lon="1.60956">
        <ele>155</ele>
        <time>2016-03-07T11:24:21Z</time>
      </trkpt>
      <trkpt lat="44.79703" lon="1.60988">
        <ele>154</ele>
        <time>2016-03-07T11:24:26Z</time>
      </trkpt>
      <trkpt lat="44.79716" lon="1.61007">
        <ele>154</ele>
        <time>2016-03-07T11:24:31Z</time>
      </trkpt>
      <trkpt lat="44.79722" lon="1.61017">
        <ele>155</ele>
        <time>2016-03-07T11:24:36Z</time>
      </trkpt>
      <trkpt lat="44.79725" lon="1.61024">
        <ele>156</ele>
        <time>2016-03-07T11:24:41Z</time>
      </trkpt>
      <trkpt lat="44.79725" lon="1.61046">
        <ele>156</ele>
        <time>2016-03-07T11:24:46Z</time>
      </trkpt>
      <trkpt lat="44.79714" lon="1.61085">
        <ele>153</ele>
        <time>2016-03-07T11:24:51Z</time>
      </trkpt>
      <trkpt lat="44.79699" lon="1.61164">
        <ele>153</ele>
        <time>2016-03-07T11:24:56Z</time>
      </trkpt>
      <trkpt lat="44.79686" lon="1.61224">
        <ele>152</ele>
        <time>2016-03-07T11:25:01Z</time>
      </trkpt>
      <trkpt lat="44.79663" lon="1.61267">
        <ele>147</ele>
        <time>2016-03-07T11:25:06Z</time>
      </trkpt>
      <trkpt lat="44.79635" lon="1.61321">
        <ele>153</ele>
        <time>2016-03-07T11:25:11Z</time>
      </trkpt>
      <trkpt lat="44.79622" lon="1.61353">
        <ele>151</ele>
        <time>2016-03-07T11:25:16Z</time>
      </trkpt>
      <trkpt lat="44.79617" lon="1.61392">
        <ele>152</ele>
        <time>2016-03-07T11:25:21Z</time>
      </trkpt>
      <trkpt lat="44.79622" lon="1.61437">
        <ele>153</ele>
        <time>2016-03-07T11:25:26Z</time>
      </trkpt>
      <trkpt lat="44.79642" lon="1.61495">
        <ele>155</ele>
        <time>2016-03-07T11:25:31Z</time>
      </trkpt>
      <trkpt lat="44.7969" lon="1.61616">
        <ele>150</ele>
        <time>2016-03-07T11:25:36Z</time>
      </trkpt>
      <trkpt lat="44.797" lon="1.61609">
        <ele>154</ele>
        <time>2016-03-07T11:25:41Z</time>
      </trkpt>
      <trkpt lat="44.79714" lon="1.61621">
        <ele>158</ele>
        <time>2016-03-07T11:25:46Z</time>
      </trkpt>
      <trkpt lat="44.79746" lon="1.61647">
        <ele>161</ele>
        <time>2016-03-07T11:25:51Z</time>
      </trkpt>
      <trkpt lat="44.79773" lon="1.61687">
        <ele>167</ele>
        <time>2016-03-07T11:25:56Z</time>
      </trkpt>
      <trkpt lat="44.79792" lon="1.61702">
        <ele>172</ele>
        <time>2016-03-07T11:26:01Z</time>
      </trkpt>
      <trkpt lat="44.79814" lon="1.61714">
        <ele>177</ele>
        <time>2016-03-07T11:26:06Z</time>
      </trkpt>
      <trkpt lat="44.79837" lon="1.61738">
        <ele>173</ele>
        <time>2016-03-07T11:26:11Z</time>
      </trkpt>
      <trkpt lat="44.79856" lon="1.61755">
        <ele>177</ele>
        <time>2016-03-07T11:26:16Z</time>
      </trkpt>
      <trkpt lat="44.79886" lon="1.61776">
        <ele>185</ele>
        <time>2016-03-07T11:26:21Z</time>
      </trkpt>
      <trkpt lat="44.79887" lon="1.61768">
        <ele>190</ele>
        <time>2016-03-07T11:26:26Z</time>
      </trkpt>
      <trkpt lat="44.79891" lon="1.61772">
        <ele>190</ele>
        <time>2016-03-07T11:26:31Z</time>
      </trkpt>
      <trkpt lat="44.799" lon="1.61774">
        <ele>193</ele>
        <time>2016-03-07T11:26:36Z</time>
      </trkpt>
      <trkpt lat="44.7992" lon="1.61776">
        <ele>201</ele>
        <time>2016-03-07T11:26:41Z</time>
      </trkpt>
      <trkpt lat="44.7992" lon="1.61766">
        <ele>208</ele>
        <time>2016-03-07T11:26:46Z</time>
      </trkpt>
      <trkpt lat="44.79915" lon="1.61763">
        <ele>208</ele>
        <time>2016-03-07T11:26:51Z</time>
      </trkpt>
      <trkpt lat="44.79902" lon="1.61761">
        <ele>202</ele>
        <time>2016-03-07T11:26:56Z</time>
      </trkpt>
      <trkpt lat="44.79903" lon="1.61751">
        <ele>209</ele>
        <time>2016-03-07T11:27:01Z</time>
      </trkpt>
      <trkpt lat="44.79915" lon="1.61754">
        <ele>214</ele>
        <time>2016-03-07T11:27:06Z</time>
      </trkpt>
      <trkpt lat="44.79934" lon="1.61761">
        <ele>213</ele>
        <time>2016-03-07T11:27:11Z</time>
      </trkpt>
      <trkpt lat="44.7994" lon="1.61772">
        <ele>206</ele>
        <time>2016-03-07T11:27:16Z</time>
      </trkpt>
      <trkpt lat="44.79941" lon="1.61741">
        <ele>225</ele>
        <time>2016-03-07T11:27:21Z</time>
      </trkpt>
      <trkpt lat="44.79944" lon="1.61771">
        <ele>207</ele>
        <time>2016-03-07T11:27:26Z</time>
      </trkpt>
      <trkpt lat="44.79969" lon="1.61774">
        <ele>209</ele>
        <time>2016-03-07T11:27:31Z</time>
      </trkpt>
      <trkpt lat="44.79973" lon="1.61762">
        <ele>217</ele>
        <time>2016-03-07T11:27:36Z</time>
      </trkpt>
      <trkpt lat="44.79993" lon="1.61754">
        <ele>224</ele>
        <time>2016-03-07T11:27:41Z</time>
      </trkpt>
      <trkpt lat="44.79972" lon="1.61749">
        <ele>224</ele>
        <time>2016-03-07T11:27:46Z</time>
      </trkpt>
      <trkpt lat="44.80006" lon="1.61734">
        <ele>234</ele>
        <time>2016-03-07T11:27:51Z</time>
      </trkpt>
      <trkpt lat="44.79981" lon="1.61737">
        <ele>230</ele>
        <time>2016-03-07T11:27:56Z</time>
      </trkpt>
      <trkpt lat="44.80018" lon="1.61703">
        <ele>248</ele>
        <time>2016-03-07T11:28:01Z</time>
      </trkpt>
      <trkpt lat="44.79989" lon="1.61705">
        <ele>244</ele>
        <time>2016-03-07T11:28:06Z</time>
      </trkpt>
      <trkpt lat="44.80021" lon="1.61685">
        <ele>254</ele>
        <time>2016-03-07T11:28:11Z</time>
      </trkpt>
      <trkpt lat="44.80049" lon="1.61676">
        <ele>259</ele>
        <time>2016-03-07T11:28:16Z</time>
      </trkpt>
      <trkpt lat="44.80049" lon="1.61665">
        <ele>262</ele>
        <time>2016-03-07T11:28:21Z</time>
      </trkpt>
      <trkpt lat="44.80001" lon="1.6167">
        <ele>259</ele>
        <time>2016-03-07T11:28:26Z</time>
      </trkpt>
      <trkpt lat="44.79997" lon="1.61636">
        <ele>261</ele>
        <time>2016-03-07T11:28:31Z</time>
      </trkpt>
      <trkpt lat="44.79994" lon="1.61626">
        <ele>262</ele>
        <time>2016-03-07T11:28:36Z</time>
      </trkpt>
      <trkpt lat="44.79989" lon="1.61621">
        <ele>262</ele>
        <time>2016-03-07T11:28:41Z</time>
      </trkpt>
      <trkpt lat="44.79989" lon="1.6161">
        <ele>262</ele>
        <time>2016-03-07T11:28:46Z</time>
      </trkpt>
    </trkseg>
  </trk>
</gpx>